When you browse on this site, cookies collect data to enhance your experience and personalize the content and advertising you see.
Visit our Privacy Policy to learn more. By continuing to use the site, you agree to this use of cookies and data.
  • In Czech Republic
  • List of Countries
  • For 7 days
  • Water Temperature
  • Satellite Maps
  • Weather Map
  • Weather Widgets
  • user-avatar
    Login

    Hourly Weather Cancún

    Today, 20 March, Wednesday

    Time Temperature Precipitation Wind Pressure Humidity
    00:00 +22°C° 0 mm 4 mps 760 mmHg 94%
    01:00 +22°C° 0 mm 4 mps 760 mmHg 94%
    02:00 +22°C° 0 mm 4 mps 760 mmHg 94%
    03:00 +22°C° 0 mm 3 mps 760 mmHg 94%
    04:00 +22°C° 0.1 mm 4 mps 760 mmHg 94%
    05:00 +22°C° 0.1 mm 4 mps 760 mmHg 94%
    06:00 +22°C° 0.1 mm 4 mps 760 mmHg 94%
    07:00 +25°C° 0.2 mm 4 mps 761 mmHg 87%
    08:00 +26°C° 0.2 mm 5 mps 761 mmHg 80%
    09:00 +28°C° 0.2 mm 5 mps 761 mmHg 72%
    10:00 +29°C° 0.1 mm 5 mps 761 mmHg 67%
    11:00 +30°C° 0.1 mm 5 mps 761 mmHg 62%
    12:00 +30°C° 0.1 mm 5 mps 761 mmHg 57%
    13:00 +30°C° 0 mm 5 mps 761 mmHg 57%
    14:00 +30°C° 0 mm 5 mps 760 mmHg 57%
    15:00 +30°C° 0 mm 6 mps 760 mmHg 56%
    16:00 +28°C° 0 mm 5 mps 760 mmHg 62%
    17:00 +27°C° 0 mm 5 mps 760 mmHg 67%
    18:00 +25°C° 0 mm 4 mps 760 mmHg 73%
    19:00 +23°C° 0 mm 4 mps 761 mmHg 76%
    20:00 +23°C° 0 mm 4 mps 761 mmHg 80%
    21:00 +22°C° 0 mm 4 mps 762 mmHg 83%
    22:00 +22°C° 0 mm 4 mps 762 mmHg 85%
    23:00 +22°C° 0 mm 4 mps 762 mmHg 87%

    Tomorrow, 21 March, Thursday

    Time Temperature Precipitation Wind Pressure Humidity
    00:00 +22°C° 0 mm 4 mps 762 mmHg 89%
    01:00 +22°C° 0 mm 4 mps 762 mmHg 89%
    02:00 +22°C° 0 mm 4 mps 761 mmHg 89%
    03:00 +22°C° 0 mm 4 mps 761 mmHg 89%
    04:00 +22°C° 0 mm 4 mps 761 mmHg 88%
    05:00 +21°C° 0 mm 4 mps 761 mmHg 88%
    06:00 +21°C° 0 mm 3 mps 762 mmHg 87%
    07:00 +23°C° 0 mm 4 mps 762 mmHg 78%
    08:00 +26°C° 0 mm 4 mps 763 mmHg 69%
    09:00 +28°C° 0 mm 4 mps 763 mmHg 60%
    10:00 +29°C° 0 mm 4 mps 763 mmHg 55%
    11:00 +30°C° 0 mm 4 mps 763 mmHg 51%
    12:00 +30°C° 0 mm 4 mps 763 mmHg 47%
    13:00 +30°C° 0 mm 4 mps 762 mmHg 47%
    14:00 +30°C° 0 mm 5 mps 761 mmHg 47%
    15:00 +30°C° 0 mm 5 mps 761 mmHg 47%
    16:00 +28°C° 0 mm 5 mps 761 mmHg 53%
    17:00 +26°C° 0 mm 4 mps 761 mmHg 60%
    18:00 +23°C° 0 mm 4 mps 762 mmHg 66%
    19:00 +23°C° 0 mm 4 mps 762 mmHg 70%
    20:00 +22°C° 0 mm 4 mps 763 mmHg 73%
    21:00 +21°C° 0 mm 3 mps 763 mmHg 77%
    22:00 +21°C° 0 mm 3 mps 763 mmHg 79%
    23:00 +21°C° 0 mm 3 mps 763 mmHg 82%

    Day after tomorrow, 22 March, Friday

    Time Temperature Precipitation Wind Pressure Humidity
    00:00 +21°C° 0 mm 3 mps 763 mmHg 84%
    01:00 +21°C° 0 mm 3 mps 762 mmHg 84%
    02:00 +21°C° 0 mm 3 mps 762 mmHg 84%
    03:00 +21°C° 0 mm 3 mps 761 mmHg 85%
    04:00 +20°C° 0 mm 3 mps 762 mmHg 84%
    05:00 +20°C° 0 mm 3 mps 762 mmHg 83%
    06:00 +20°C° 0 mm 3 mps 762 mmHg 82%
    07:00 +24°C° 0 mm 3 mps 763 mmHg 73%
    08:00 +26°C° 0 mm 3 mps 764 mmHg 64%
    09:00 +28°C° 0 mm 3 mps 764 mmHg 54%
    10:00 +28°C° 0 mm 3 mps 764 mmHg 55%
    11:00 +27°C° 0 mm 3 mps 764 mmHg 56%
    12:00 +27°C° 0 mm 3 mps 763 mmHg 56%
    13:00 +28°C° 0 mm 3 mps 763 mmHg 54%
    14:00 +28°C° 0 mm 3 mps 762 mmHg 52%
    15:00 +29°C° 0 mm 4 mps 761 mmHg 50%
    16:00 +27°C° 0 mm 4 mps 762 mmHg 56%
    17:00 +26°C° 0 mm 4 mps 762 mmHg 63%
    18:00 +23°C° 0 mm 4 mps 762 mmHg 70%
    19:00 +23°C° 0 mm 4 mps 762 mmHg 72%
    20:00 +22°C° 0 mm 4 mps 763 mmHg 75%
    21:00 +22°C° 0 mm 4 mps 763 mmHg 77%
    22:00 +22°C° 0 mm 4 mps 763 mmHg 77%
    23:00 +21°C° 0 mm 4 mps 763 mmHg 77%

    23 March, Saturday

    Time Temperature Precipitation Wind Pressure Humidity
    00:00 +21°C° 0 mm 4 mps 763 mmHg 77%
    01:00 +21°C° 0 mm 4 mps 762 mmHg 77%
    02:00 +21°C° 0 mm 3 mps 762 mmHg 76%
    03:00 +21°C° 0 mm 3 mps 761 mmHg 76%
    04:00 +21°C° 0 mm 3 mps 762 mmHg 76%
    05:00 +21°C° 0 mm 3 mps 762 mmHg 76%
    06:00 +21°C° 0 mm 3 mps 762 mmHg 76%
    07:00 +24°C° 0 mm 3 mps 763 mmHg 68%
    08:00 +26°C° 0 mm 3 mps 763 mmHg 61%
    09:00 +28°C° 0 mm 3 mps 764 mmHg 53%
    10:00 +29°C° 0 mm 3 mps 764 mmHg 51%
    11:00 +29°C° 0 mm 4 mps 763 mmHg 50%
    12:00 +30°C° 0 mm 4 mps 763 mmHg 48%
    13:00 +30°C° 0 mm 4 mps 762 mmHg 50%
    14:00 +29°C° 0 mm 4 mps 762 mmHg 52%
    15:00 +29°C° 0 mm 4 mps 761 mmHg 54%
    16:00 +27°C° 0 mm 4 mps 761 mmHg 60%
    17:00 +26°C° 0 mm 4 mps 762 mmHg 65%
    18:00 +25°C° 0 mm 3 mps 762 mmHg 71%
    19:00 +24°C° 0 mm 3 mps 762 mmHg 73%
    20:00 +22°C° 0 mm 3 mps 763 mmHg 75%
    21:00 +22°C° 0 mm 3 mps 763 mmHg 77%
    22:00 +22°C° 0 mm 3 mps 763 mmHg 77%
    23:00 +21°C° 0 mm 3 mps 762 mmHg 77%

    24 March, Sunday

    Time Temperature Precipitation Wind Pressure Humidity
    00:00 +21°C° 0 mm 3 mps 762 mmHg 77%
    01:00 +21°C° 0 mm 3 mps 762 mmHg 77%
    02:00 +21°C° 0 mm 3 mps 761 mmHg 77%
    03:00 +21°C° 0 mm 3 mps 761 mmHg 76%
    04:00 +21°C° 0 mm 3 mps 761 mmHg 78%
    05:00 +21°C° 0 mm 3 mps 761 mmHg 80%
    06:00 +21°C° 0 mm 3 mps 762 mmHg 82%
    07:00 +25°C° 0.1 mm 3 mps 762 mmHg 75%
    08:00 +27°C° 0.1 mm 3 mps 762 mmHg 67%
    09:00 +29°C° 0.1 mm 4 mps 763 mmHg 60%
    10:00 +30°C° 0.1 mm 4 mps 762 mmHg 57%
    11:00 +32°C° 0.1 mm 4 mps 762 mmHg 54%
    12:00 +33°C° 0.1 mm 4 mps 761 mmHg 51%
    13:00 +32°C° 0 mm 4 mps 761 mmHg 52%
    14:00 +32°C° 0 mm 4 mps 760 mmHg 54%
    15:00 +32°C° 0 mm 4 mps 759 mmHg 55%
    16:00 +30°C° 0 mm 4 mps 760 mmHg 62%
    17:00 +28°C° 0 mm 4 mps 760 mmHg 70%
    18:00 +27°C° 0 mm 4 mps 760 mmHg 77%
    19:00 +26°C° 0 mm 4 mps 760 mmHg 81%
    20:00 +26°C° 0 mm 4 mps 760 mmHg 84%
    21:00 +25°C° 0 mm 4 mps 761 mmHg 88%
    22:00 +25°C° 0 mm 4 mps 760 mmHg 89%
    23:00 +25°C° 0 mm 3 mps 760 mmHg 91%

    25 March, Monday

    Time Temperature Precipitation Wind Pressure Humidity
    00:00 +24°C° 0 mm 3 mps 760 mmHg 92%
    01:00 +24°C° 0 mm 3 mps 760 mmHg 92%
    02:00 +24°C° 0 mm 3 mps 759 mmHg 92%
    03:00 +24°C° 0 mm 3 mps 759 mmHg 92%
    04:00 +24°C° 0 mm 3 mps 759 mmHg 92%
    05:00 +24°C° 0 mm 3 mps 759 mmHg 92%
    06:00 +24°C° 0 mm 3 mps 759 mmHg 92%
    07:00 +26°C° 0 mm 3 mps 760 mmHg 81%
    08:00 +28°C° 0 mm 4 mps 760 mmHg 70%
    09:00 +32°C° 0 mm 4 mps 760 mmHg 60%
    10:00 +32°C° 0 mm 4 mps 760 mmHg 56%
    11:00 +33°C° 0 mm 4 mps 759 mmHg 53%
    12:00 +34°C° 0 mm 4 mps 759 mmHg 49%
    13:00 +34°C° 0 mm 4 mps 758 mmHg 50%
    14:00 +34°C° 0 mm 4 mps 758 mmHg 51%
    15:00 +34°C° 0 mm 4 mps 757 mmHg 52%
    16:00 +32°C° 0 mm 4 mps 758 mmHg 59%
    17:00 +29°C° 0 mm 3 mps 758 mmHg 66%
    18:00 +28°C° 0 mm 3 mps 758 mmHg 74%
    19:00 +27°C° 0 mm 3 mps 759 mmHg 78%
    20:00 +26°C° 0 mm 3 mps 759 mmHg 83%
    21:00 +25°C° 0 mm 3 mps 759 mmHg 88%
    22:00 +25°C° 0 mm 2 mps 759 mmHg 89%
    23:00 +25°C° 0 mm 2 mps 759 mmHg 91%
    Show more